map of PEM home
PEM - Airport
Location
City:  Puerto Maldonado, Madre de Dios, Perú
Name:Padre Aldamiz International Airport
ICAO:SPTU
IATA:PEM

Details
Type:Airport (Aerodrome, Airfield)
Use:Public/Civil, Military, International (customs port of entry)
Latitude:12°36'50"S (-12.613830)
Longitude:69°13'43"W (-69.228677)
Elevation:659 ft (201 m)
Variation:8.37°W (WMM2015v2 magnetic declination)
-0.20° annual change
Runways:1
Longest:11483 × 148 ft (3500 × 45 m), paved

Time
Time Zone:UTC-5
Local Time:

Weather
METAR:SPTU 041400Z 17004KT 120V210 9999 FEW010 BKN150 29/24 Q1015 RMK BIRD HAZARD RWY 01/19 PP000
TAF:SPTU 041100Z 0412/0512 VRB02KT CAVOK TX34/0419Z TN23/0511Z
BECMG 0413/0415 SCT015 BKN100
TEMPO 0418/0422 12010KT
BECMG 0423/0501 CAVOK

Related Locations
Nearby:
Farthest:TBB: 12346 mi / 19868 km
Tuy Hòa (Dong Tac), VN

Find:

   beyond  
but within

Other Information
Maps:
NOTAMs:
Links:
Sources:

  
  • flag of Perú
  • flag of Madre de Dios
  

Sectional Chart

Flight Planning
at skyvector.com

Satellite Image

Google Maps Satellite view

 

Copyright © 2004-2019 Karl L. Swartz. All rights reserved.
The Great Circle Mapper name and logo are trademarks of the Great Circle Mapper.
All other trademarks mentioned herein belong to their respective owners.
Please see credits for attibutions and further copyright information.

  Follow gcmap on Facebook Follow gcmap on Twitter GCmap on LinkedIn

hCard Microformat

Geo Microformat